Selinsgrove, PA

2:49 AM EST on December 10, 2019 (GMT -0500)
Penn Valley

Weather History for KSEG - October, 2019

Change the Weather History Date:

Thursday, October 3, 2019

  Actual Average (KIPT) Record (KIPT)
Temperature  
Mean Temperature 60 °F -  
Max Temperature 62 °F 64 °F 90 °F (1919)
Min Temperature 57 °F 43 °F 28 °F (1899)
Degree Days  
Heating Degree Days 6    
Growing Degree Days 10 (Base 50)    
Moisture  
Dew Point 57 °F    
Average Humidity 94    
Maximum Humidity 100    
Minimum Humidity 90    
Precipitation  
Precipitation 0.20 in - - ()
Sea Level Pressure  
Sea Level Pressure 30.02 in    
Wind  
Wind Speed 5 mph (NE)    
Max Wind Speed 9 mph    
Max Gust Speed -    
Visibility 6 miles    
Events Rain    
Averages and records for this station are not official NWS values.
T = Trace of Precipitation, MM = Missing Value Source: NWS Daily Summary

Daily Weather History Graph

Daily Weather History Graph

Search for Another Location

Airport or City:

Astronomy

Oct. 03, 2019 Rise Set
Actual Time 7:05 AM EDT 6:46 PM EDT
Civil Twilight 6:38 AM EDT 7:13 PM EDT
Nautical Twilight 6:06 AM EDT 7:45 PM EDT
Astronomical Twilight 5:34 AM EDT 8:17 PM EDT
Moon 12:36 PM EDT (10/3) 10:22 PM EDT (10/3)
Length of Visible Light 12h 35m
Length of Day
11h 40m
Waxing Crescent, 29% of the Moon is Illuminated
Oct 3
Waxing Crescent
Oct 5
First Quarter
Oct 13
Full
Oct 21
Last Quarter
Oct 27
New

Hourly Weather History & Observations

Time (EDT) Temp. Dew Point Humidity Pressure Visibility Wind Dir Wind Speed Gust Speed Precip Events Conditions
12:36 AM 62.1 °F 60.1 °F 93% 29.99 in 10.0 mi NNE 9.2 mph - 0.01 in   Overcast
12:53 AM 62.1 °F 59.0 °F 90% 29.98 in 10.0 mi North 5.8 mph - 0.01 in   Overcast
1:01 AM 62.1 °F 59.0 °F 90% 29.99 in 10.0 mi North 4.6 mph - N/A   Overcast
1:45 AM 61.0 °F 57.9 °F 90% 29.99 in 10.0 mi NNE 9.2 mph - N/A   Overcast
1:53 AM 61.0 °F 57.9 °F 90% 29.99 in 10.0 mi North 9.2 mph - N/A   Overcast
2:36 AM 59.0 °F 57.0 °F 93% 30.00 in 9.0 mi North 9.2 mph - 0.00 in Rain Light Rain
2:53 AM 59.0 °F 57.0 °F 93% 30.00 in 8.0 mi North 5.8 mph - 0.00 in Rain Light Rain
3:11 AM 57.9 °F 55.9 °F 93% 30.01 in 10.0 mi North 5.8 mph - 0.00 in   Overcast
3:53 AM 57.0 °F 55.9 °F 96% 30.01 in 8.0 mi North 6.9 mph - 0.01 in Rain Light Rain
4:53 AM 57.0 °F 55.0 °F 93% 30.02 in 10.0 mi NNW 6.9 mph - 0.00 in   Overcast
5:40 AM 57.0 °F 55.0 °F 93% 30.04 in 6.0 mi NNW 6.9 mph - 0.00 in Rain Light Rain
5:53 AM 57.0 °F 55.0 °F 93% 30.04 in 5.0 mi NNW 6.9 mph - 0.01 in   Overcast
6:53 AM 57.0 °F 55.0 °F 93% 30.05 in 10.0 mi NNW 5.8 mph - 0.01 in   Overcast
7:53 AM 57.0 °F 55.9 °F 96% 30.06 in 4.0 mi NNW 3.5 mph - 0.03 in Rain Light Rain
8:53 AM 57.0 °F 55.9 °F 96% 30.06 in 10.0 mi Calm Calm - 0.00 in   Overcast
9:32 AM 59.0 °F 57.9 °F 96% 30.07 in 10.0 mi Calm Calm - N/A   Overcast
9:40 AM 59.0 °F 57.9 °F 96% 30.07 in 10.0 mi ENE 4.6 mph - N/A   Overcast
9:53 AM 59.0 °F 57.0 °F 93% 30.07 in 9.0 mi NE 4.6 mph - 0.00 in Rain Light Rain
10:40 AM 59.0 °F 57.0 °F 93% 30.08 in 10.0 mi East 3.5 mph - 0.01 in   Overcast
10:53 AM 59.0 °F 57.0 °F 93% 30.07 in 9.0 mi ESE 3.5 mph - 0.01 in Rain Light Rain
11:53 AM 57.9 °F 55.9 °F 93% 30.06 in 10.0 mi SE 5.8 mph - 0.01 in   Overcast
12:33 PM 57.9 °F 55.9 °F 93% 30.05 in 1.8 mi SE 3.5 mph - 0.03 in Rain Rain
12:48 PM 57.2 °F 55.4 °F 94% 30.05 in 2.5 mi ESE 5.8 mph - 0.05 in Rain Light Rain
12:53 PM 57.9 °F 55.9 °F 93% 30.05 in 3.0 mi ESE 4.6 mph - 0.05 in Rain Light Rain
1:33 PM 57.9 °F 55.9 °F 93% 30.05 in 4.0 mi SE 3.5 mph - 0.00 in   Overcast
1:53 PM 57.9 °F 57.0 °F 97% 30.04 in 2.5 mi ESE 3.5 mph - 0.00 in   Overcast
2:07 PM 57.9 °F 57.0 °F 97% 30.03 in 2.0 mi Calm Calm - N/A   Overcast
2:29 PM 59.0 °F 57.0 °F 93% 30.03 in 3.0 mi ESE 5.8 mph - N/A   Overcast
2:53 PM 59.0 °F 57.0 °F 93% 30.02 in 5.0 mi Calm Calm - N/A   Overcast
3:08 PM 59.0 °F 57.0 °F 93% 30.02 in 6.0 mi SE 4.6 mph - N/A   Overcast
3:21 PM 59.0 °F 57.0 °F 93% 30.02 in 6.0 mi Calm Calm - N/A   Overcast
3:31 PM 59.0 °F 57.0 °F 93% 30.02 in 7.0 mi ESE 4.6 mph - N/A   Overcast
3:53 PM 60.1 °F 57.0 °F 90% 30.01 in 10.0 mi ESE 3.5 mph - N/A   Overcast
4:53 PM 60.1 °F 57.0 °F 90% 29.99 in 6.0 mi ESE 4.6 mph - N/A   Overcast
5:53 PM 60.1 °F 57.0 °F 90% 29.97 in 10.0 mi South 6.9 mph - N/A   Overcast
6:53 PM 60.1 °F 57.9 °F 93% 29.98 in 10.0 mi Calm Calm - N/A   Overcast
7:53 PM 60.1 °F 59.0 °F 96% 29.99 in 4.0 mi NNW 5.8 mph - N/A   Overcast
8:03 PM 60.1 °F 59.0 °F 96% 29.99 in 3.0 mi NNW 4.6 mph - N/A   Overcast
8:16 PM 59.0 °F 59.0 °F 100% 30.00 in 2.5 mi NW 3.5 mph - N/A   Overcast
8:32 PM 59.0 °F 59.0 °F 100% 30.00 in 3.0 mi Calm Calm - 0.02 in Rain Light Rain
8:53 PM 59.0 °F 59.0 °F 100% 29.99 in 4.0 mi Calm Calm - 0.04 in Rain Rain
9:00 PM 59.0 °F 59.0 °F 100% 29.99 in 4.0 mi Calm Calm - 0.02 in Rain Rain
9:32 PM 60.1 °F 59.0 °F 96% 30.00 in 9.0 mi Calm Calm - 0.02 in   Overcast
9:53 PM 60.1 °F 59.0 °F 96% 29.99 in 6.0 mi Calm Calm - 0.02 in   Overcast
10:53 PM 59.0 °F 59.0 °F 100% 30.00 in 4.0 mi Calm Calm - N/A   Overcast
11:05 PM 59.0 °F 59.0 °F 100% 30.00 in 2.0 mi Calm Calm - N/A   Overcast
11:17 PM 60.1 °F 59.0 °F 96% 29.99 in 2.0 mi Calm Calm - N/A   Overcast
11:40 PM 60.1 °F 59.0 °F 96% 29.98 in 2.0 mi Calm Calm - N/A   Overcast
11:53 PM 60.1 °F 59.0 °F 96% 29.97 in 3.0 mi Calm Calm - N/A   Overcast